Regional Weather Roundup
Issued by NWS Cleveland, OH

Home | Current Version | Previous Version | Graphics & Text | Print | Product List | Glossary On
Versions: 1 2 3 4 5 6 7 8 9 10 11 12 13 14 15 16 17 18 19 20 21 22 23 24 25 26 27 28 29 30 31 32 33 34 35 36 37 38 39 40 41 42 43 44 45 46 47 48 49 50
348
ASUS41 KCLE 280410
RWRCLE
OHIO REGIONAL WEATHER ROUNDUP
NATIONAL WEATHER SERVICE WILMINGTON, OH
1200 AM EDT TUE MAR 28 2017

NOTE: "FAIR" INDICATES FEW OR NO CLOUDS BELOW 12,000 FEET WITH NO
SIGNIFICANT WEATHER AND/OR OBSTRUCTIONS TO VISIBILITY.

OHZ001>008-015>018-024>027-034-035-043-044-280500-
   NORTHWEST OHIO

CITY           SKY/WX    TMP DP  RH WIND       PRES   REMARKS
DEFIANCE       CLOUDY    53  49  86 N6        29.89S
FINDLAY        CLOUDY    58  48  69 NE8       29.86F
TOLEDO EXPRESS CLOUDY    52  49  89 CALM      29.89F
TOLEDO EXEC    CLOUDY    56  50  80 NE5       29.90F
LIMA           CLOUDY    56  51  84 NE10      29.85F
$$

OHZ009>014-019>023-028>033-038-089-280500-
   NORTHEAST OHIO

CITY           SKY/WX    TMP DP  RH WIND       PRES   REMARKS
CLE-HOPKINS    CLOUDY    55  46  71 E5        29.92S
CLE-LAKEFRONT  MOCLDY    54  47  77 E3        29.89F
CUY CO. ARPT   NOT AVBL
LORAIN-ELYRIA  CLOUDY    51  46  83 E5        29.89F
ASHTABULA      MOCLDY    49  48  97 E3        29.92F
AKRON-CANTON   MOCLDY    55  47  74 NE7       29.89S
WOOSTER        MOCLDY    54  49  83 NE6       29.88F
MANSFIELD      MOCLDY    53  50  89 NE5       29.87F
YOUNGSTOWN     CLOUDY    52  48  86 NE10      29.91F
$$

OHZ042-051>053-060>062-070>072-077>081-280500-
  SOUTHWEST OHIO

CITY           SKY/WX    TMP DP  RH WIND       PRES   REMARKS
CINC-COVINGTON CLOUDY    57  56  96 S3        29.84F
CINC-LUNKEN    CLOUDY    57  57 100 CALM      29.85F
HAMILTON       CLOUDY    59  58  96 CALM      29.85F
DAYTON         LGT RAIN  57  56  96 S7        29.85S
WRIGHT-PAT AFB LGT RAIN  58  58 100 S6        29.84F
DAYTON GENERAL LGT RAIN  57  55  93 S9        29.84F
WILMINGTON     LGT RAIN  57  56  96 S3        29.84F
$$

OHZ036-037-039>041-045>050-054>059-063>069-073>076-082>088-280500-
  CENTRAL AND SOUTHEAST OHIO

CITY           SKY/WX    TMP DP  RH WIND       PRES   REMARKS
COLUMBUS       LGT RAIN  60  53  77 E6        29.83F
OSU AIRPORT    FAIR      57  52  83 NE5       29.83F
BOLTON FIELD   LGT RAIN  59  53  80 E6        29.84F
RICKENBACK AFB LGT RAIN  58  54  88 S9        29.84S
NEWARK         CLOUDY    56  52  86 E5        29.84F
MARION         CLOUDY    54  51  90 NE8       29.86F
LANCASTER      CLOUDY    57  53  86 CALM      29.85F
ZANESVILLE     MOCLDY    56  51  84 SE5       29.87S
NEW PHILLY     FAIR      54  51  90 CALM      29.88F
$$




USA.gov is the U.S. government's official web portal to all federal, state and local government web resources and services.